OK2ZAW-21 Weather Reports


Display with metric or nautical units.
time (UTC)temp
F
wind
direction
speed
MPH
gust
MPH
rain 1hr
in
rain 24hr
in
rain mn
in
humidity
%
barometer
mb
20260905190928 58 270 2.0 3.0 0.00 0.00 0.00 97 1025.0
20260905190417 58 270 3.0 3.0 0.00 0.00 0.00 96 1024.9
20260905185907 58 270 2.0 3.0 0.00 0.00 0.00 97 1024.6
20260905185356 58 270 2.0 3.0 0.00 0.00 0.00 97 1024.6
20260905184845 59 270 2.0 3.0 0.00 0.00 0.00 96 1024.5
20260905184335 59 270 2.0 4.0 0.00 0.00 0.00 95 1024.4
20260905183824 59 270 3.0 4.0 0.00 0.00 0.00 95 1024.3
20260905183313 59 266 3.0 7.0 0.00 0.00 0.00 95 1024.1
20260905182803 60 260 4.0 6.0 0.00 0.00 0.00 96 1024.1
20260905182252 60 258 3.0 4.0 0.00 0.00 0.00 10 1024.0
20260905181741 60 270 3.0 6.0 0.00 0.00 0.00 10 1024.0
20260905181231 61 293 3.0 5.0 0.00 0.00 0.00 98 1023.9
20260905180720 61 315 3.0 5.0 0.00 0.00 0.00 97 1023.8
20260905175658 62 315 5.0 7.0 0.00 0.00 0.00 92 1023.6
20260905174637 62 341 5.0 8.0 0.00 0.00 0.00 88 1023.4
20260905174126 62 0 6.0 7.0 0.00 0.00 0.00 86 1023.2
20260905173615 62 0 6.0 9.0 0.00 0.00 0.00 84 1023.1
20260905173104 62 316 5.0 7.0 0.00 0.00 0.00 83 1023.1
20260905172554 63 325 6.0 10.0 0.00 0.00 0.00 81 1023.0
20260905172043 63 325 5.0 8.0 0.00 0.00 0.00 80 1023.1
20260905171532 63 315 6.0 8.0 0.00 0.00 0.00 78 1023.0
20260905171021 64 327 7.0 0.0 0.00 0.00 0.00 74 1022.9
20260905170510 65 315 8.0 15.0 0.00 0.00 0.00 70 1022.8
20260905165959 64 328 11.0 18.0 0.00 0.00 0.00 68 1022.2
20260905165448 66 344 6.0 9.0 0.00 0.00 0.00 67 1022.7
20260905164937 66 342 8.0 11.0 0.00 0.00 0.00 66 1022.5
20260905164426 65 319 7.0 10.0 0.00 0.00 0.00 65 1022.0
20260905163914 66 325 9.0 14.0 0.00 0.00 0.00 64 1022.4
20260905163403 67 323 8.0 12.0 0.00 0.00 0.00 63 1022.5
20260905162341 66 315 6.0 0.0 0.00 0.00 0.00 64 1021.9
20260905161830 67 315 4.0 6.0 0.00 0.00 0.00 67 1022.6
20260905161319 66 347 6.0 8.0 0.00 0.00 0.00 66 1022.5
20260905160808 65 344 6.0 10.0 0.00 0.00 0.00 71 1022.5
20260905160257 65 350 5.0 6.0 0.00 0.00 0.00 73 1022.6
20260905155746 65 328 6.0 0.0 0.00 0.00 0.00 73 1022.5
20260905155235 65 328 6.0 8.0 0.00 0.00 0.00 74 1022.5
20260905154724 64 319 5.0 8.0 0.00 0.00 0.00 73 1022.4
20260905154213 66 315 7.0 10.0 0.00 0.00 0.00 68 1022.3
20260905153701 66 356 8.0 11.0 0.00 0.00 0.00 67 1022.3
20260905153150 66 350 8.0 11.0 0.00 0.00 0.00 64 1022.4
20260905152639 66 341 7.0 10.0 0.00 0.00 0.00 63 1022.2
20260905152128 66 334 7.0 0.0 0.00 0.00 0.00 64 1022.3
20260905151617 65 315 8.0 11.0 0.00 0.00 0.00 65 1022.3
20260905150044 67 342 8.0 10.0 0.00 0.00 0.00 56 1022.1
20260905145533 66 330 8.0 10.0 0.00 0.00 0.00 57 1022.0
20260905145021 67 334 9.0 15.0 0.00 0.00 0.00 58 1022.2
20260905144510 67 321 7.0 10.0 0.00 0.00 0.00 56 1022.1
20260905143959 67 325 7.0 10.0 0.00 0.00 0.00 58 1022.2
20260905143448 65 322 8.0 15.0 0.00 0.00 0.00 61 1022.1
20260905142936 66 315 6.0 8.0 0.00 0.00 0.00 59 1022.3
20260905142425 65 350 7.0 10.0 0.00 0.00 0.00 64 1022.4
20260905141914 64 0 8.0 15.0 0.00 0.00 0.00 64 1022.5
20260905141403 66 345 7.0 0.0 0.00 0.00 0.00 61 1022.4
20260905140341 66 315 9.0 15.0 0.00 0.00 0.00 59 1022.1
20260905135830 65 327 8.0 12.0 0.00 0.00 0.00 62 1022.4
20260905135318 65 315 6.0 8.0 0.00 0.00 0.00 63 1022.3
20260905134807 65 344 7.0 9.0 0.00 0.00 0.00 62 1022.4
20260905134256 66 333 6.0 9.0 0.00 0.00 0.00 60 1022.5
20260905133745 65 0 8.0 12.0 0.00 0.00 0.00 61 1022.4
20260905133234 67 319 7.0 16.0 0.00 0.00 0.00 60 1022.4
20260905132722 66 315 5.0 7.0 0.00 0.00 0.00 65 1022.6
20260905132211 65 315 7.0 10.0 0.00 0.00 0.00 65 1022.6
20260905131700 65 315 8.0 12.0 0.00 0.00 0.00 64 1021.9
20260905131149 66 316 8.0 11.0 0.00 0.00 0.00 61 1022.5
20260905130638 65 331 6.0 10.0 0.00 0.00 0.00 61 1022.4
20260905130126 67 315 6.0 8.0 0.00 0.00 0.00 60 1022.5
20260905125615 65 315 7.0 9.0 0.00 0.00 0.00 62 1022.7
20260905125104 64 325 7.0 10.0 0.00 0.00 0.00 64 1022.5
20260905124042 66 322 7.0 16.0 0.00 0.00 0.00 60 1022.3
20260905123530 67 348 6.0 9.0 0.00 0.00 0.00 61 1022.5
20260905123019 66 342 7.0 10.0 0.00 0.00 0.00 63 1022.5
20260905122508 66 339 7.0 10.0 0.00 0.00 0.00 64 1022.7
20260905121956 66 321 7.0 9.0 0.00 0.00 0.00 65 1022.6
20260905121445 65 315 7.0 10.0 0.00 0.00 0.00 68 1022.7
20260905120934 66 315 6.0 7.0 0.00 0.00 0.00 66 1022.5
20260905120423 66 315 7.0 10.0 0.00 0.00 0.00 70 1022.6
20260905115911 66 315 6.0 10.0 0.00 0.00 0.00 71 1022.6
20260905115400 65 334 6.0 8.0 0.00 0.00 0.00 72 1022.7
20260905114849 67 325 7.0 9.0 0.00 0.00 0.00 69 1022.7
20260905114338 66 315 7.0 12.0 0.00 0.00 0.00 70 1022.8
20260905113826 65 315 8.0 14.0 0.00 0.00 0.00 69 1022.6
20260905113315 66 315 6.0 9.0 0.00 0.00 0.00 71 1022.7
20260905112253 66 315 6.0 10.0 0.00 0.00 0.00 78 1022.8
20260905111741 65 315 7.0 10.0 0.00 0.00 0.00 79 1022.7
20260905111230 65 315 7.0 0.0 0.00 0.00 0.00 80 1022.7
20260905110719 64 315 5.0 7.0 0.00 0.00 0.00 87 1022.7
20260905110208 63 315 7.0 10.0 0.00 0.00 0.00 93 1022.8
20260905105657 64 315 7.0 15.0 0.00 0.00 0.00 88 1022.7
20260905105146 65 315 7.0 12.0 0.00 0.00 0.00 88 1022.7
20260905104124 62 315 8.0 10.0 0.00 0.00 0.00 91 1022.4
20260905103613 63 319 8.0 11.0 0.00 0.00 0.00 95 1022.5
20260905103102 61 359 6.0 8.0 0.00 0.00 0.00 10 1022.6
20260905102551 63 339 8.0 11.0 0.00 0.00 0.00 10 1022.6
20260905102040 63 334 6.0 9.0 0.00 0.00 0.00 10 1022.6
20260905101529 63 356 5.0 6.0 0.00 0.00 0.00 10 1022.7
20260905101018 62 330 6.0 0.0 0.00 0.00 0.00 10 1022.8
20260905100507 63 318 7.0 10.0 0.00 0.00 0.00 10 1022.8
20260905095956 61 279 6.0 8.0 0.00 0.00 0.00 10 1022.8
20260905094934 62 348 6.0 11.0 0.00 0.00 0.00 10 1022.9
20260905094423 61 306 5.0 6.0 0.00 0.00 0.00 10 1023.0
20260905093912 61 315 6.0 8.0 0.00 0.00 0.00 10 1023.0
20260905093402 61 315 6.0 10.0 0.00 0.00 0.00 10 1022.9
20260905092340 60 344 7.0 9.0 0.00 0.00 0.00 10 1023.0
20260905091829 59 315 6.0 9.0 0.00 0.00 0.00 10 1022.9
20260905091319 59 327 6.0 8.0 0.00 0.00 0.00 10 1022.9
20260905090808 58 318 6.0 9.0 0.00 0.00 0.00 10 1022.6
20260905090257 59 336 5.0 7.0 0.00 0.00 0.00 10 1023.0
20260905085747 58 315 5.0 7.0 0.00 0.00 0.00 10 1023.0
20260905085236 57 344 6.0 9.0 0.00 0.00 0.00 10 1023.0
20260905084725 57 322 6.0 10.0 0.00 0.00 0.00 10 1022.8
20260905084215 57 325 6.0 10.0 0.00 0.00 0.00 10 1022.9
20260905083704 57 328 6.0 10.0 0.00 0.00 0.00 10 1022.9
20260905083154 56 315 6.0 8.0 0.00 0.00 0.00 10 1022.9
20260905082643 56 319 4.0 6.0 0.00 0.00 0.00 10 1023.0
20260905082133 55 347 5.0 8.0 0.00 0.00 0.00 10 1023.0
20260905081622 55 318 5.0 8.0 0.00 0.00 0.00 10 1022.8
20260905081112 55 336 5.0 7.0 0.00 0.00 0.00 10 1022.8
20260905080601 55 351 5.0 9.0 0.00 0.00 0.00 10 1022.5
20260905080051 55 322 4.0 6.0 0.00 0.00 0.00 10 1022.5
20260905075541 55 318 4.0 6.0 0.00 0.00 0.00 10 1022.6
20260905074520 54 305 4.0 5.0 0.00 0.00 0.00 10 1022.2
20260905074009 54 289 4.0 5.0 0.00 0.00 0.00 10 1022.3
20260905073459 54 315 3.0 4.0 0.00 0.00 0.00 10 1022.2
20260905072949 53 315 3.0 5.0 0.00 0.00 0.00 10 1022.0
20260905072439 53 315 3.0 5.0 0.00 0.00 0.00 10 1021.9
20260905071928 53 315 3.0 5.0 0.00 0.00 0.00 10 1021.7
20260905071418 53 277 3.0 4.0 0.00 0.00 0.00 10 1021.7
20260905070908 53 342 3.0 4.0 0.00 0.00 0.00 10 1021.8
20260905070357 52 0 4.0 5.0 0.00 0.00 0.00 10 1021.9
20260905065847 52 0 3.0 5.0 0.00 0.00 0.00 10 1021.9
20260905065337 52 0 4.0 5.0 0.00 0.00 0.00 10 1022.1
20260905064827 52 334 4.0 5.0 0.00 0.00 0.00 10 1021.7
20260905064317 52 341 5.0 8.0 0.00 0.00 0.00 10 1021.8
20260905063806 52 331 6.0 8.0 0.00 0.00 0.00 10 1021.8
20260905063256 52 324 7.0 10.0 0.00 0.00 0.00 10 1021.7
20260905062746 51 328 8.0 0.0 0.00 0.00 0.00 10 1021.6
20260905062236 51 322 7.0 0.0 0.00 0.00 0.00 10 1021.3
20260905061726 51 321 6.0 8.0 0.00 0.00 0.00 10 1021.6
20260905061215 51 321 6.0 8.0 0.00 0.00 0.00 10 1021.4
20260905060705 51 315 7.0 10.0 0.00 0.00 0.00 10 1020.8
20260905060155 51 318 6.0 7.0 0.00 0.00 0.00 10 1021.3
20260905055645 51 350 4.0 5.0 0.00 0.00 0.00 10 1021.8
20260905055135 51 328 4.0 5.0 0.00 0.00 0.00 10 1021.7
20260905054625 51 315 4.0 4.0 0.00 0.00 0.00 10 1021.8
20260905054114 51 315 5.0 6.0 0.00 0.00 0.00 10 1021.8
20260905053604 51 315 5.0 6.0 0.00 0.00 0.00 10 1021.9
20260905053054 52 315 5.0 7.0 0.00 0.00 0.00 10 1021.9
20260905052544 52 315 5.0 8.0 0.00 0.00 0.00 10 1021.8
20260905052033 52 315 5.0 7.0 0.00 0.00 0.00 10 1021.5
20260905051523 53 315 5.0 8.0 0.00 0.00 0.00 10 1021.6
20260905051013 53 315 4.0 5.0 0.00 0.00 0.00 10 1021.5
20260905050503 53 315 4.0 7.0 0.00 0.00 0.00 10 1021.3
20260905045952 53 315 5.0 6.0 0.00 0.00 0.00 10 1021.3
20260905045442 54 325 5.0 6.0 0.00 0.00 0.00 10 1021.2
20260905044932 54 336 4.0 6.0 0.00 0.00 0.00 10 1021.4
20260905044421 54 353 4.0 5.0 0.00 0.00 0.00 10 1021.1
20260905043911 54 270 4.0 5.0 0.00 0.00 0.00 10 1021.0
20260905043401 54 270 4.0 6.0 0.00 0.00 0.00 10 1021.0
20260905042850 54 270 4.0 5.0 0.00 0.00 0.00 10 1021.1
20260905042340 54 270 4.0 6.0 0.00 0.00 0.00 10 1020.9
20260905041830 54 270 4.0 5.0 0.00 0.00 0.00 10 1020.8
20260905041319 54 270 4.0 5.0 0.00 0.00 0.00 10 1020.6
20260905040809 54 270 4.0 5.0 0.00 0.00 0.00 10 1020.6
20260905040259 54 270 3.0 4.0 0.00 0.00 0.00 10 1020.5
20260905035748 54 270 3.0 4.0 0.00 0.00 0.00 10 1020.3
20260905035238 54 270 4.0 6.0 0.00 0.00 0.00 10 1020.1
20260905034728 54 270 3.0 4.0 0.00 0.00 0.00 10 1020.2
20260905034217 55 270 4.0 5.0 0.00 0.00 0.00 10 1019.9
20260905033707 55 270 5.0 7.0 0.00 0.00 0.00 10 1020.7
20260905033157 55 270 3.0 5.0 0.00 0.00 0.00 10 1019.9
20260905032646 55 270 3.0 4.0 0.00 0.00 0.00 10 1019.9
20260905032136 55 270 4.0 5.0 0.00 0.00 0.00 10 1019.9
20260905031626 55 270 4.0 5.0 0.00 0.00 0.00 10 1019.7
20260905031115 55 270 5.0 7.0 0.00 0.00 0.00 10 1019.6
20260905030605 56 270 4.0 6.0 0.00 0.00 0.00 10 1019.9
20260905030054 56 270 5.0 7.0 0.00 0.00 0.00 10 1020.1
20260905025544 56 270 5.0 6.0 0.00 0.00 0.00 10 1019.8
20260905025033 56 270 4.0 6.0 0.00 0.00 0.00 10 1019.6
20260905024523 57 270 3.0 5.0 0.00 0.00 0.00 10 1018.7
20260905024012 58 270 3.0 4.0 0.00 0.00 0.00 10 1019.0
20260905023501 58 270 4.0 5.0 0.00 0.00 0.00 10 1019.0
20260905022951 58 270 4.0 4.0 0.00 0.00 0.00 10 1019.0
20260905022440 59 270 3.0 5.0 0.00 0.00 0.00 10 1018.8
20260905021930 59 270 4.0 5.0 0.00 0.00 0.00 10 1019.0
20260905021419 60 270 3.0 4.0 0.00 0.00 0.00 10 1019.2
20260905020908 60 270 3.0 4.0 0.00 0.00 0.00 10 1019.2
20260905020358 60 270 3.0 4.0 0.00 0.00 0.00 10 1018.9
20260905015847 60 270 4.0 6.0 0.00 0.00 0.00 10 1018.7
20260905015336 60 270 3.0 4.0 0.00 0.00 0.00 10 1018.7
20260905014826 60 270 4.0 5.0 0.00 0.00 0.00 10 1018.7
20260905014315 60 270 4.0 6.0 0.00 0.00 0.00 10 1018.7
20260905013804 60 270 5.0 8.0 0.00 0.00 0.00 10 1018.8
20260905013254 60 270 4.0 8.0 0.00 0.00 0.00 10 1018.8
20260905012743 60 270 3.0 6.0 0.00 0.00 0.00 10 1018.6
20260905012232 60 270 4.0 6.0 0.00 0.00 0.00 10 1018.8
20260905011722 61 270 6.0 11.0 0.00 0.00 0.00 10 1018.5
20260905011211 61 270 5.0 7.0 0.00 0.00 0.00 10 1018.7
20260905010700 61 257 5.0 6.0 0.00 0.00 0.00 10 1018.6
20260905010149 61 229 5.0 7.0 0.00 0.00 0.00 10 1018.5
20260905005639 61 270 4.0 6.0 0.00 0.00 0.00 10 1018.5
20260905005128 61 229 5.0 6.0 0.00 0.00 0.00 10 1018.4
20260905004617 62 238 5.0 8.0 0.00 0.00 0.00 10 1018.3
20260905004106 62 270 6.0 0.0 0.00 0.00 0.00 10 1018.2
20260905003555 63 251 9.0 14.0 0.00 0.00 0.00 10 1017.9
20260905003044 64 263 8.0 10.0 0.00 0.00 0.00 10 1017.8
20260905002533 66 293 8.0 12.0 0.00 0.00 0.00 98 1017.5
20260905002022 68 315 4.0 6.0 0.00 0.00 0.00 86 1017.1
20260905001511 69 330 5.0 7.0 0.00 0.00 0.00 81 1016.7
20260905001000 69 318 6.0 10.0 0.00 0.00 0.00 79 1016.4
20260905000449 70 331 7.0 10.0 0.00 0.00 0.00 77 1016.2
20260904235938 70 327 7.0 10.0 0.00 0.00 0.00 75 1016.1
20260904235426 70 328 7.0 11.0 0.00 0.00 0.00 75 1016.0
20260904234915 70 321 8.0 12.0 0.00 0.00 0.00 74 1015.9
20260904234404 70 315 7.0 8.0 0.00 0.00 0.00 73 1016.0
20260904233853 70 327 7.0 10.0 0.00 0.00 0.00 73 1015.9
20260904233341 70 325 7.0 10.0 0.00 0.00 0.00 72 1016.0
20260904232830 70 325 7.0 8.0 0.00 0.00 0.00 72 1015.4
20260904232319 70 333 7.0 10.0 0.00 0.00 0.00 71 1015.9
20260904231808 70 321 6.0 9.0 0.00 0.00 0.00 71 1016.0
20260904231256 70 328 6.0 0.0 0.00 0.00 0.00 70 1016.0
20260904230745 71 315 7.0 8.0 0.00 0.00 0.00 69 1015.8
20260904230234 71 338 6.0 8.0 0.00 0.00 0.00 69 1015.9
20260904225723 71 350 6.0 8.0 0.00 0.00 0.00 68 1015.8
20260904225211 71 315 7.0 10.0 0.00 0.00 0.00 68 1015.8
20260904224700 71 324 7.0 8.0 0.00 0.00 0.00 68 1015.8
20260904224149 71 315 7.0 10.0 0.00 0.00 0.00 68 1015.9
20260904223637 71 315 7.0 0.0 0.00 0.00 0.00 68 1015.8
20260904223126 71 341 6.0 7.0 0.00 0.00 0.00 68 1015.8
20260904222615 71 325 7.0 10.0 0.00 0.00 0.00 67 1015.8
20260904222104 71 321 7.0 0.0 0.00 0.00 0.00 67 1015.8
20260904221553 71 333 7.0 8.0 0.00 0.00 0.00 67 1015.9
20260904221041 71 325 7.0 0.0 0.00 0.00 0.00 67 1015.9
20260904220530 71 330 7.0 8.0 0.00 0.00 0.00 67 1015.8
20260904220019 71 333 7.0 9.0 0.00 0.00 0.00 66 1015.8
20260904215508 71 319 7.0 0.0 0.00 0.00 0.00 66 1015.2
20260904214956 72 321 7.0 0.0 0.00 0.00 0.00 66 1015.8
20260904214445 71 350 6.0 8.0 0.00 0.00 0.00 67 1015.9
20260904213934 71 325 6.0 7.0 0.00 0.00 0.00 67 1015.9
20260904213423 71 330 6.0 9.0 0.00 0.00 0.00 66 1015.9
20260904212911 71 334 6.0 8.0 0.00 0.00 0.00 67 1015.8
20260904212400 71 331 6.0 7.0 0.00 0.00 0.00 67 1015.9
20260904211849 71 319 6.0 8.0 0.00 0.00 0.00 67 1015.9
20260904211338 71 322 6.0 7.0 0.00 0.00 0.00 67 1015.9
20260904210826 71 318 5.0 6.0 0.00 0.00 0.00 67 1015.9
20260904210315 71 329 5.0 6.0 0.00 0.00 0.00 66 1016.0
20260904205804 71 318 5.0 7.0 0.00 0.00 0.00 66 1016.0
20260904205252 71 318 5.0 7.0 0.00 0.00 0.00 65 1016.0
20260904204741 71 321 5.0 6.0 0.00 0.00 0.00 66 1016.0
20260904204230 71 324 5.0 7.0 0.00 0.00 0.00 65 1016.0
20260904203718 71 321 5.0 7.0 0.00 0.00 0.00 64 1016.1
20260904203207 71 333 5.0 7.0 0.00 0.00 0.00 64 1016.0
20260904202656 71 318 6.0 7.0 0.00 0.00 0.00 64 1016.0
20260904202144 71 324 5.0 6.0 0.00 0.00 0.00 64 1016.0
20260904201633 71 318 5.0 7.0 0.00 0.00 0.00 64 1016.1
20260904201122 72 321 5.0 7.0 0.00 0.00 0.00 64 1016.2
20260904200610 72 332 6.0 7.0 0.00 0.00 0.00 63 1016.1
20260904200059 72 327 5.0 7.0 0.00 0.00 0.00 62 1016.2
20260904195548 72 330 5.0 6.0 0.00 0.00 0.00 61 1016.3
20260904195036 72 315 5.0 6.0 0.00 0.00 0.00 61 1016.4
20260904194525 73 318 5.0 7.0 0.00 0.00 0.00 60 1016.7
20260904194013 73 318 5.0 7.0 0.00 0.00 0.00 60 1016.7
20260904193502 73 318 5.0 8.0 0.00 0.00 0.00 60 1016.7
20260904192951 73 324 5.0 7.0 0.00 0.00 0.00 59 1016.7
20260904192439 73 321 5.0 6.0 0.00 0.00 0.00 59 1016.8
20260904191928 73 321 5.0 6.0 0.00 0.00 0.00 59 1016.8
20260904191416 73 324 6.0 7.0 0.00 0.00 0.00 58 1016.8